Location: Newark
(30.9333°N, 122.8333°E)
Time: 05:17:53
(UTC+00:00)

Hubble Space Telescope - Visible Passes

Search period start: 22 January 2020 00:00
Search period end: 01 February 2020 00:00
Orbit: 536 x 540 km, 28.5° (Epoch: 20 January)

Date Brightness Start Highest point End Pass type
(mag) Time Alt. Az. Time Alt. Az. Time Alt. Az.
26 Jan 3.4 22:10:30 10° SSW 22:13:15 17° SSE 22:16:01 10° ESE visible
27 Jan 3.1 21:59:23 10° SSW 22:02:33 21° SSE 22:05:43 10° ESE visible
28 Jan 2.7 21:48:25 10° SW 21:51:51 26° SSE 21:55:19 10° ESE visible
29 Jan 2.3 21:37:32 10° SW 21:41:11 31° SSE 21:44:51 10° E visible
30 Jan 2.0 21:27:36 15° SW 21:30:31 36° SSE 21:34:19 10° E visible
31 Jan 1.7 21:17:52 24° SW 21:19:52 42° SSE 21:23:46 10° E visible
